Hourly Data Report for September 21, 2017

All times are specified in Local Standard Time (LST). Add 1 hour to adjust for Daylight Saving Time where and when it is observed.

PETAWAWA AWOS 2
ONTARIO

45°57'00.000" N
77°19'00.000" W
130.10 m
6106396
71625
YWA

Download Data

Hourly Data (September 2017)
Hourly Data Report for September 21, 2017
Temp Definition
°C
Dew Point Temp Definition
°C
Rel Hum Definition
%
Wind Dir Definition
10's deg

Wind Spd Definition
km/h
Visibility Definition
km
Stn Press Definition
kPa
Hmdx Definition


Wind Chill Definition


Weather Definition


TIME
00:00
01:00 13.8 13.3 97   0 14.5 100.34     LegendNANA
02:00 14.1 13.5 96   0 14.5 100.38     LegendNANA
03:00 13.0 12.5 97 28 6 12.9 100.44     LegendNANA
04:00 14.2 13.6 96   0 12.9 100.43     LegendNANA
05:00 13.1 12.7 97   0 12.9 100.45     LegendNANA
06:00 12.9 12.5 97 29 4 11.3 100.50     LegendNANA
07:00
08:00 17.6 16.1 91   0 14.5 100.54     LegendNANA
09:00 19.4 16.6 84 12 11 14.5 100.52     LegendNANA
10:00 20.7 17.5 82 12 13 14.5 100.45 26   LegendNANA
11:00 22.0 18.3 80 12 17 14.5 100.39 28   LegendNANA
12:00 24.9 20.0 74 11 9 14.5 100.45 32   LegendNANA
13:00 25.9 19.9 70 12 9 14.5 100.42 33   LegendNANA
14:00 25.8 19.1 66 11 9 14.5 100.41 33   LegendNANA
15:00 26.4 19.6 66 11 9 14.5 100.41 34   LegendNANA
16:00 26.2 19.2 65 13 7 14.5 100.40 33   LegendNANA
17:00 25.0 19.0 69 13 11 14.5 100.38 32   LegendNANA
18:00 23.9 18.5 72 14 9 14.5 100.41 30   LegendNANA
19:00 22.6 18.6 78 12 6 14.5 100.42 29   LegendNANA
20:00 21.5 19.0 86 12 4 14.5 100.44 28   LegendNANA
21:00 20.2 18.7 91   0 14.5 100.47 27   LegendNANA
22:00 19.2 18.1 93 10 4 14.5 100.49     LegendNANA
23:00 18.1 17.0 93   0 14.5 100.52     LegendNANA

Notes on Data Quality.

Legend

  • E = Estimated
  • M = Missing
  • NA = Not Available
  • ‡ = Partner data that is not subject to review by the National Climate Archives
Date modified: